User: anonymous   Login
Location: Kelowna
(49.8880°N, 119.4960°W)
Time: 13:12:44
(UTC-07:00)
Language:

ITAMSAT 1 - Orbit

View from above orbital plane
View from above orbital plane
View from above satellite
View from above satellite

Ground track
Ground track

The orbit data is extracted from the following two-line orbital elements,

1 22826U 93061D   24113.15467974  .00000558  00000-0  23004-3 0  9993
2 22826  98.7887 165.1941 0008205 222.3013 137.7537 14.30842249595137
Epoch (UTC): 22 April 2024 03:42:44
Eccentricity: 0.0008205
inclination: 98.7887°
perigee height: 783 km
apogee height: 795 km
right ascension of ascending node: 165.1941°
argument of perigee: 222.3013°
revolutions per day: 14.30842249
mean anomaly at epoch: 137.7537°
orbit number at epoch: 59513

The dashed part of the orbit path shows where the satellite is in the earth's shadow,  

DLR